sat.trackr.live / text

‹ back to catalog

STARLINK-37122

NORAD 68678 · 2026-077S

PAYLOAD ACTIVE UNKNOWN

§ Identity

Operator
Country
US
Launch date
2026-04-11
Launch site
AFWTR
Launch vehicle
Mass (kg)
RCS (m²)

Purposes: comms

External: N2YO · Heavens-Above · Gunter

§ Orbital elements

Epoch: 2026-05-25T02:53:47.025888Z

Period
93.91 min
Inclination
97.2856°
Eccentricity
0.0000459
Mean motion
15.33448900 rev/d
Perigee alt
465.2 km
Apogee alt
465.8 km
Semi-major
6,843.7 km
B*
4.5388e-4
RAAN
16.7310°
Arg perigee
53.3060°
Mean anomaly
306.8225°
Rev number
687

§ Raw data

STARLINK-371221 68678U 26077S   26145.12068317  .00014608  00000+0  45388-3 0  99922 68678  97.2856  16.7310 0000459  53.3060 306.8225 15.33448900  6871

JSON: /api/v1/satellites/68678 · /tle

For live sub-satellite position, see the globe view (requires WebGL).

§ Visibility from observer

Set your observer location to see the next 7 days of passes ≥ 10°. The values pass through the URL so the page stays shareable.

No JS? Fill the form by hand. The geolocation button needs JavaScript.